Regional Weather Roundup
Issued by NWS

Home | Current Version | Previous Version | Graphics & Text | Print | Product List | Glossary On
Versions: 1 2 3 4 5 6 7 8 9 10 11 12 13 14 15 16 17 18 19 20 21 22 23 24 25 26 27 28 29 30 31 32 33 34 35 36 37 38 39 40 41 42 43 44 45 46 47 48 49 50
000
ASUS45 KBOI 181710
RWRID

IDAHO REGIONAL WEATHER ROUNDUP
NATIONAL WEATHER SERVICE BOISE ID
1100 AM MDT FRI AUG 18 2017

NOTE: "FAIR" INDICATES FEW OR NO CLOUDS BELOW 12000 FEET
WITH NO SIGNIFICANT WEATHER AND/OR OBSTRUCTIONS TO VISIBILITY

IDZ012-014-181800-
SOUTHWEST IDAHO


CITY           SKY/WX    TMP DP  RH WIND       PRES   REMARKS
BOISE          SUNNY     76  44  32 W5        30.12R
CALDWELL       SUNNY     75  44  33 NW6       30.11S
MOUNTAIN HOME  SUNNY     80  41  25 N8        30.12S
$$

IDZ016-017-181800-
SOUTHCENTRAL IDAHO


CITY           SKY/WX    TMP DP  RH WIND       PRES   REMARKS
BURLEY         SUNNY     74  42  31 W9        30.16S
JEROME         SUNNY     72  41  32 W10       30.18R
TWIN FALLS     SUNNY     76  44  32 NW7       30.18S
$$

IDZ019>023-181800-
SOUTHEAST IDAHO


CITY           SKY/WX    TMP DP  RH WIND       PRES   REMARKS
IDAHO FALLS    SUNNY     74  36  25 S17       30.20S
POCATELLO      SUNNY     77  37  23 W10       30.20S
REXBURG        SUNNY     72  35  25 SW9       30.21S
$$

IDZ006-010-011-018-031-032-181800-
CENTRAL IDAHO MOUNTAINS


CITY           SKY/WX    TMP DP  RH WIND       PRES   REMARKS
MCCALL         SUNNY     68  41  37 S5        30.19F
HAILEY         SUNNY     72  39  30 CALM      30.23S
STANLEY          N/A     64  39  39 VRB5      30.30F
SALMON         SUNNY     65  39  38 CALM      30.18F
CHALLIS        SUNNY     68  42  38 E3        30.21F
$$

IDZ002-004-006-007-026-181800-
NORTHERN IDAHO


CITY           SKY/WX    TMP DP  RH WIND       PRES   REMARKS
LEWISTON       SUNNY     72  48  42 NW5       30.06S
LOWELL           N/A     68  47  46 S3        30.09F
COEUR D`ALENE  SUNNY     73  46  38 S6        30.08S
MULLAN PASS    SUNNY     62  35  36 VRB3      30.22S
$$



USA.gov is the U.S. government's official web portal to all federal, state and local government web resources and services.